Vertical_Velocity
-2 -2 -30 -1 -3 12 9 8 0 -6 -2 9 -7 9 -5 2 4 -3 -5 3 5 -5 -3 1 -6 -4 1 -0 -11 2 -2 -2 0 -2 4 -2 5 -2 3 2 2 2 0 -0
3 -61 24 5 0 -4 4 2 -5 -18 -16 18 -4 -19 -0 -11 -6 -0 -1 -4 2 -1 -2 -0 -1 -1 4 13 2 -3 4 6 -0 -3 3 -2 1 5 1 2 3 6 2 2
-13 17 -2 9 0 4 -2 -0 -4 -7 18 -8 4 -21 -20 -17 7 4 0 -0 1 0 -4 -4 -2 -1 1 0 1 -3 2 7 4 2 -0 -1 -1 -6 -2 0 2 1 0 -3
-10 33 9 11 -10 9 -5 6 3 5 8 -9 29 -15 -9 -16 -15 5 6 6 -8 -6 -10 3 0 0 5 4 5 2 4 2 1 -1 -2 1 -3 -3 -0 0 -3 -3 0 -1
-59 -20 -9 -21 0 3 -15 2 2 10 -2 15 -16 25 -30 -8 -16 -21 5 -4 -7 -4 -10 -9 -2 6 2 1 -6 -0 -2 2 -0 1 3 -0 -0 2 3 0 -1 -2 -0 -0
18 17 -3 4 17 -6 31 -1 -1 6 10 17 -11 22 -34 -11 -29 -14 8 8 -5 -2 0 1 7 4 0 3 -8 -1 -2 -3 -2 0 3 3 5 3 1 -1 -1 -1 -1 -1
46 -18 -3 6 0 13 24 16 3 7 12 -8 -14 13 -16 -8 3 -13 -9 9 6 -0 0 -1 -2 -3 4 5 -6 -1 3 0 3 1 2 4 4 2 1 1 0 1 1 3
-5 11 21 23 -5 -13 -21 -11 -15 -8 -2 -7 2 -20 -42 -7 1 -3 -16 -8 5 8 -1 -1 4 2 -1 2 12 7 9 9 3 1 2 5 1 0 2 2 0 -0 -0 -1
-4 -0 -1 7 -1 -6 -4 -23 26 5 6 4 -12 5 0 2 0 -1 -2 -4 -1 -1 1 1 -2 3 1 -3 4 8 3 5 3 -2 -1 -2 2 1 1 1 -1 -1 1 1
5 2 -1 -0 13 10 -20 45 12 5 -0 0 -4 -2 -17 -4 -9 -10 -7 -5 -2 1 -3 -6 -4 -3 -2 -0 4 3 5 4 0 -3 1 -2 2 1 2 1 1 1 0 -0
13 18 4 20 -14 -10 9 8 9 -1 -12 -2 -2 -34 -11 -12 -7 -9 -3 -4 -5 -4 -2 4 2 3 1 6 7 7 2 -1 5 -6 -4 -0 -1 -0 -2 -2 -3 -2 -1 -1
-36 12 1 -29 -9 6 10 -22 -5 3 -16 -7 8 -92 -6 -8 -9 -1 -3 6 9 7 8 8 8 5 3 5 10 12 4 -2 3 1 -3 1 4 4 3 2 1 1 -1 -2
-11 -9 9 16 20 5 11 12 6 15 7 -25 -0 -60 -19 2 -3 4 -5 -3 -3 -1 -2 -1 3 -0 3 1 4 6 5 2 -12 3 4 6 6 2 -1 1 2 1 1 1
42 -7 -19 -23 -65 19 -3 -9 4 8 20 -30 -33 11 -6 -2 -9 -14 -7 -2 1 1 -3 8 1 0 9 7 8 -1 -5 -2 3 1 4 0 -0 -1 -0 1 1 -1 -1 -2
62 -1 12 -22 -8 22 -17 -3 -10 2 -40 12 -76 18 -21 -7 -6 -5 1 6 -0 -6 -7 -5 -1 -1 -1 3 -2 -7 -7 -2 3 -4 -3 2 1 2 3 0 -2 -2 -1 -0
13 18 1 3 -1 6 10 7 9 -0 -18 8 4 -40 73 20 2 -11 -12 -7 -5 -5 -5 -2 4 9 4 1 -2 -0 5 4 1 -0 3 -0 0 -1 -2 -1 -1 -2 -5 -3
-4 -2 35 -13 14 29 43 -20 -9 -6 21 -32 1 -110 33 -1 -1 -2 -10 -9 -5 -5 -6 -10 -6 1 0 4 3 -2 5 2 4 2 -0 -0 1 2 0 -1 -0 1 -1 0
-5 9 13 -20 0 25 -62 12 -16 -5 25 -10 -25 -20 10 -8 13 4 -6 -3 1 3 -2 -6 -0 2 2 6 -0 3 -1 3 2 2 2 2 -1 -1 -3 -2 -2 -1 -0 -4
-4 15 3 8 6 -30 21 -12 -32 -41 -78 -8 1 19 -24 7 8 -22 5 1 -0 7 -7 -11 1 11 3 9 7 7 4 0 0 1 -0 -3 -2 -4 -5 -5 -4 -2 2 -1
7 1 26 4 15 1 -26 -13 -13 20 -36 48 -25 -13 -11 51 -8 -60 10 1 -10 -6 5 -8 2 7 8 6 5 6 6 1 0 2 2 -2 -1 -3 -2 -1 -4 -1 -2 -2
4 12 -1 -4 4 -16 -44 1 86 76 -127 26 -32 -32 43 -11 -85 100 3 6 12 -1 -6 -2 7 1 4 4 5 3 4 -1 6 1 -4 0 0 -3 0 -2 0 -0 0 -1
2 7 0 -5 9 -10 -9 -1 2 -131 10 27 8 7 -13 -35 60 -12 -2 2 1 -14 -10 4 2 -5 -0 5 5 3 -2 6 1 -2 -1 2 -1 -5 -3 -7 -3 -1 -1 -4
-6 -26 -18 10 -24 -3 10 18 64 19 -16 4 15 3 -9 28 -7 7 3 -2 -2 0 5 1 2 1 3 10 7 3 6 -2 2 -1 0 1 -0 -0 -7 -4 -0 -3 -5 -4
-15 -3 -7 31 -45 -9 -14 -1 -19 29 14 26 18 -2 1 6 -2 7 6 6 -2 -0 3 6 0 3 4 6 7 12 3 1 -3 0 -1 -2 1 -4 -5 -7 -0 -2 -5 -4
-16 20 23 3 10 9 -36 -18 13 8 15 26 12 -2 -11 24 6 5 -5 -3 -9 2 -2 -8 -5 6 11 12 9 1 2 3 4 1 -1 -0 -8 -2 -2 -6 -3 -3 -7 -7
1 -23 16 -52 17 -22 -9 9 -19 10 -0 18 3 2 -14 -14 -14 -3 2 8 5 -3 -10 -4 -3 5 10 7 1 3 2 1 1 -5 -9 -7 2 -5 1 -1 -5 -3 -5 -3
Height
3068 3070 3052 3065 3072 3080 3081 3080 3077 3079 3085 3082 3079 3076 3080 3081 3081 3081 3082 3084 3085 3087 3090 3093 3099 3105 3109 3112 3114 3117 3118 3119 3121 3122 3124 3126 3128 3128 3129 3129 3130 3131 3131 3131
3060 3040 3055 3063 3069 3073 3074 3073 3072 3074 3078 3079 3072 3066 3069 3072 3072 3075 3076 3077 3080 3082 3084 3086 3091 3096 3101 3105 3107 3110 3112 3114 3117 3118 3119 3120 3123 3123 3123 3123 3123 3123 3123 3125
3039 3029 3054 3054 3057 3061 3061 3062 3068 3069 3074 3071 3067 3053 3058 3062 3063 3066 3069 3071 3073 3075 3078 3080 3084 3089 3095 3098 3101 3105 3106 3108 3110 3111 3112 3114 3114 3114 3116 3118 3118 3117 3117 3118
3033 3035 3044 3046 3043 3051 3047 3057 3064 3067 3072 3062 3062 3039 3044 3050 3053 3057 3061 3063 3066 3069 3071 3075 3079 3083 3088 3092 3096 3098 3100 3101 3102 3104 3105 3106 3107 3108 3111 3112 3112 3112 3112 3112
3001 3019 3030 3032 3018 3045 3036 3055 3058 3064 3064 3062 3050 3048 3030 3040 3041 3049 3053 3056 3058 3063 3066 3069 3073 3077 3081 3085 3089 3091 3093 3095 3095 3098 3099 3100 3101 3103 3103 3104 3105 3105 3106 3106
3005 3018 3022 3013 3031 3037 3046 3052 3056 3059 3061 3044 3042 3045 3011 3026 3029 3036 3043 3047 3051 3055 3059 3062 3066 3069 3072 3076 3080 3082 3085 3087 3089 3090 3092 3093 3094 3095 3096 3097 3098 3098 3100 3101
3003 3001 3011 3015 3022 3029 3037 3045 3051 3053 3048 3013 3032 3032 2989 3011 3015 3023 3031 3037 3043 3047 3051 3055 3058 3061 3063 3066 3072 3074 3077 3079 3082 3084 3085 3086 3086 3088 3089 3090 3091 3093 3095 3096
2994 2992 2990 2998 3005 3015 3021 3029 3028 3031 3024 3020 3030 3002 2984 3001 3010 3017 3023 3027 3032 3036 3042 3047 3051 3054 3057 3057 3060 3065 3067 3071 3074 3077 3078 3079 3080 3081 3082 3084 3085 3086 3088 3088
2981 2979 2981 2984 2999 3008 3010 3015 3003 3019 3018 3019 3003 2988 2991 2995 3000 3007 3012 3017 3021 3025 3031 3037 3043 3047 3050 3051 3052 3055 3059 3064 3067 3069 3070 3072 3073 3074 3075 3076 3077 3079 3080 3080
2969 2971 2971 2981 2992 2995 2995 3001 3014 3017 3019 3010 2987 2984 2978 2981 2990 2998 3003 3007 3013 3018 3023 3028 3032 3036 3041 3043 3045 3048 3051 3057 3060 3062 3065 3067 3067 3068 3069 3070 3072 3074 3074 3074
2960 2965 2967 2972 2965 2968 2986 2993 2995 3003 3003 2993 2984 2969 2972 2978 2985 2990 2994 2998 3004 3010 3015 3019 3022 3026 3031 3034 3038 3042 3046 3050 3052 3056 3061 3061 3062 3063 3064 3065 3066 3066 3066 3065
2943 2955 2957 2957 2965 2969 2970 2965 2975 2982 2974 2978 2987 2947 2965 2969 2977 2983 2987 2990 2994 3001 3006 3009 3012 3015 3019 3025 3031 3036 3042 3045 3050 3051 3054 3055 3056 3057 3058 3059 3059 3059 3058 3057
2937 2941 2944 2951 2959 2957 2954 2954 2964 2967 2969 2965 2978 2932 2958 2963 2970 2975 2979 2983 2987 2991 2996 2999 3003 3006 3010 3016 3024 3031 3035 3039 3043 3043 3045 3048 3049 3050 3051 3051 3051 3051 3050 3048
2931 2927 2925 2925 2920 2931 2947 2944 2952 2959 2964 2940 2954 2943 2950 2955 2960 2968 2972 2975 2977 2983 2988 2992 2995 2999 3003 3009 3016 3024 3030 3032 3033 3035 3038 3040 3041 3042 3043 3043 3044 3043 3041 3039
2921 2907 2915 2911 2915 2927 2924 2927 2935 2943 2940 2951 2921 2937 2942 2947 2955 2963 2966 2968 2970 2975 2980 2983 2986 2990 2996 3003 3010 3017 3020 3023 3026 3029 3031 3033 3035 3036 3037 3037 3036 3034 3031 3028
2901 2889 2900 2897 2902 2915 2914 2913 2920 2928 2930 2939 2920 2934 2931 2942 2948 2954 2956 2960 2963 2966 2973 2977 2980 2983 2989 2998 3003 3007 3010 3014 3018 3021 3023 3026 3028 3029 3028 3027 3025 3023 3022 3021
2896 2892 2888 2887 2891 2897 2895 2900 2906 2912 2912 2919 2922 2895 2933 2929 2929 2936 2943 2947 2952 2956 2963 2968 2974 2979 2985 2987 2993 2999 3004 3008 3012 3013 3015 3017 3019 3019 3018 3018 3017 3016 3015 3013
2880 2885 2892 2894 2885 2864 2867 2884 2893 2900 2900 2909 2911 2894 2918 2920 2923 2929 2932 2936 2942 2948 2955 2963 2969 2973 2978 2981 2987 2991 2996 3001 3004 3006 3008 3010 3010 3011 3011 3010 3009 3008 3006 3004
2881 2887 2892 2888 2878 2875 2857 2869 2878 2885 2876 2883 2895 2900 2911 2914 2919 2917 2917 2926 2936 2944 2950 2955 2961 2968 2974 2978 2981 2986 2989 2993 2996 3000 3002 3003 3004 3004 3004 3004 3003 3002 3000 2999
2870 2872 2885 2886 2880 2865 2854 2852 2856 2864 2858 2876 2889 2888 2892 2902 2906 2880 2902 2914 2928 2937 2941 2948 2954 2961 2968 2972 2976 2981 2983 2985 2990 2993 2995 2997 2997 2996 2996 2997 2996 2994 2994 2993
2858 2858 2863 2860 2853 2847 2844 2842 2859 2853 2858 2855 2865 2867 2876 2885 2877 2888 2899 2907 2917 2925 2932 2940 2948 2955 2962 2967 2969 2973 2976 2981 2984 2985 2987 2989 2988 2989 2990 2989 2989 2988 2988 2988
2846 2846 2849 2847 2848 2844 2841 2841 2836 2832 2834 2843 2850 2858 2868 2873 2879 2885 2890 2899 2905 2912 2920 2932 2941 2949 2953 2959 2961 2965 2970 2974 2976 2979 2981 2982 2981 2981 2983 2984 2985 2984 2983 2982
2838 2840 2843 2845 2841 2835 2831 2830 2838 2834 2839 2840 2844 2849 2857 2862 2868 2876 2879 2889 2897 2905 2914 2923 2933 2938 2945 2949 2953 2957 2963 2965 2969 2974 2976 2976 2976 2976 2976 2978 2979 2978 2978 2978
2825 2830 2832 2836 2829 2825 2827 2822 2822 2825 2836 2837 2838 2844 2849 2851 2859 2867 2873 2880 2886 2897 2905 2914 2923 2931 2936 2941 2945 2950 2953 2957 2962 2967 2968 2968 2969 2970 2971 2972 2972 2972 2973 2973
2819 2823 2819 2821 2816 2819 2821 2820 2818 2817 2821 2826 2831 2838 2841 2844 2849 2857 2866 2872 2879 2886 2894 2905 2915 2924 2929 2934 2937 2941 2946 2950 2954 2958 2959 2961 2961 2963 2964 2965 2964 2964 2966 2967
2806 2809 2808 2806 2806 2811 2810 2811 2809 2810 2813 2823 2828 2833 2837 2839 2845 2851 2858 2865 2871 2878 2888 2897 2905 2914 2921 2925 2930 2934 2939 2943 2947 2950 2952 2953 2954 2955 2957 2957 2959 2959 2959 2959